Flag for Isle of Man Weather past 2 weeks in Ramsey, Isle of Man

Now
61 °F

Passing clouds.


Feels Like: 61 °F
Forecast: 58 / 62 °F
Wind: 5 mph from North

Location: Isle Of Man / Ronaldsway Airport

Current Time: Sep 19, 2014 at 10:59:39 PM

Latest Report: Sep 19, 2014 at 9:50 PM


Visibility: N/A

Pressure: 29.98 "Hg

Humidity: 83%

Dew point: 55 °F

Location of RamseyLocation

Historic Weather in Ramsey — Graph

°F

Ramsey temperature yesterday

Maximum temperature yesterday: 66 °F (at 3:20 PM)
Minimum temperature yesterday: 57 °F (at 12:50 AM)
Average temperature yesterday: 63 °F

Past Weeks' High & Low Weather Summary

 TemperatureHumidityPressure
High68 °F (Sep 5, 12:20 PM)100% (Sep 11, 6:50 AM)30.36 "Hg (Sep 11, 6:50 AM)
Low50 °F (Sep 8, 6:20 AM)55% (Sep 6, 3:50 PM)29.83 "Hg (Sep 18, 3:20 PM)
Average59 °F80%30.09 "Hg
* Reported Sep 4 9:50 PM — Sep 19 9:50 PM, Ramsey, Weather by CustomWeather, © 2014

Note: Actual official high and low records may vary slightly from our data, if they occured in-between our weather recording intervals... More about our weather records

Advertising

Ramsey weather history for previous 24 hours

 ConditionsComfort  
Time TempWeatherWind HumidityBarometerVisibility
9:50 PM
Sep 19
61 °FPassing clouds.5 mph83%29.98 "HgN/A
8:50 PM61 °FPassing clouds.6 mph83%29.98 "HgN/A
8:20 PM61 °FPartly sunny.6 mph83%29.95 "HgN/A
7:50 PM61 °FPartly sunny.5 mph83%29.95 "HgN/A
7:20 PM61 °FPartly sunny.3 mph83%29.95 "HgN/A
6:50 PM61 °FPartly sunny.6 mph88%29.95 "HgN/A
6:20 PM61 °FScattered clouds.7 mph88%29.92 "HgN/A
5:50 PM63 °FPartly sunny.9 mph83%29.92 "HgN/A
5:20 PM63 °FScattered clouds.10 mph83%29.92 "HgN/A
4:50 PM63 °FScattered clouds.9 mph77%29.92 "HgN/A
4:20 PM63 °FScattered clouds.9 mph77%29.92 "HgN/A
3:50 PM64 °FScattered clouds.9 mph73%29.92 "HgN/A
3:20 PM64 °FPassing clouds.9 mph73%29.92 "HgN/A
2:50 PM64 °FPassing clouds.8 mph73%29.92 "HgN/A
2:20 PM64 °FPassing clouds.9 mph73%29.92 "HgN/A
1:50 PM64 °FPassing clouds.10 mph73%29.92 "HgN/A
1:20 PM64 °FPassing clouds.10 mph73%29.92 "HgN/A
12:50 PM64 °FPassing clouds.12 mph73%29.92 "HgN/A
12:20 PM64 °FPassing clouds.12 mph73%29.92 "HgN/A
11:50 AM64 °FPassing clouds.13 mph78%29.92 "HgN/A
11:20 AM64 °FPassing clouds.14 mph78%29.92 "HgN/A
10:50 AM64 °FPassing clouds.14 mph78%29.89 "HgN/A
10:20 AM63 °FScattered clouds.14 mph83%29.89 "HgN/A
9:50 AM63 °FPartly sunny.12 mph83%29.89 "HgN/A
9:20 AM61 °FPartly sunny.12 mph88%29.89 "HgN/A
8:50 AM61 °FPartly sunny.10 mph88%29.89 "HgN/A
8:20 AM61 °FOvercast.13 mph88%29.89 "HgN/A
7:50 AM61 °FOvercast.13 mph83%29.89 "Hg6 mi
7:20 AM61 °FPassing clouds.13 mph88%29.89 "Hg6 mi
6:50 AM61 °FPassing clouds.14 mph88%29.89 "Hg6 mi
6:20 AM61 °FPassing clouds.13 mph88%29.86 "Hg5 mi
5:50 AM61 °FPassing clouds.13 mph88%29.86 "Hg5 mi
4:50 AM61 °FPassing clouds.15 mph88%29.86 "Hg4 mi
3:50 AM61 °FLow clouds.13 mph94%29.86 "Hg4 mi
2:50 AM61 °FPassing clouds.12 mph94%29.86 "Hg4 mi
1:50 AM63 °FPassing clouds.12 mph88%29.86 "Hg4 mi
12:50 AM63 °FPassing clouds.12 mph88%29.86 "Hg4 mi
11:50 PM
Sep 18
63 °FPassing clouds.14 mph88%29.86 "Hg4 mi
10:50 PM64 °FPassing clouds.14 mph88%29.86 "Hg5 mi
Weather by CustomWeather, © 2014

See weather overviewHow to use our weather pages